Regional Weather Roundup
Issued by NWS

Home | Current Version | Previous Version | Text Only | Print | Product List | Glossary On
Versions: 1 2 3 4 5 6 7 8 9 10 11 12 13 14 15 16 17 18 19 20 21 22 23 24 25 26 27 28 29 30 31 32 33 34 35 36 37 38 39 40 41 42 43 44 45 46 47 48 49 50
000
ASUS44 KJAN 301410
RWRMS

MISSISSIPPI HOURLY WEATHER ROUNDUP
NATIONAL WEATHER SERVICE JACKSON MS
900 AM CDT THU JUL 30 2015

NOTE: "FAIR: INDICATES FEW OR NO CLOUDS BELOW 12,000 FEET WITH NO
SIGNIFICANT WEATHER AND/OR OBSTRUCTIONS TO VISIBILITY.

MSZ001>002-007>008-010>013-018>021-025>028-034>036-301500-
NORTHWEST MISSISSIPPI

CITY           SKY/WX    TMP DP  RH WIND       PRES   REMARKS
CLARKSDALE     CLOUDY    82  81  94 N13G18    30.08R HX  95
CLEVELAND      FAIR      85  81  87 N10       30.05S HX 100
GREENWOOD      SUNNY     85  76  74 N7        30.04R HX  94
GREENVILLE     SUNNY     85  79  82 NE13      30.05R HX  98
OLIVE BRANCH   MOSUNNY   81  73  78 NE12      30.10R
OXFORD         PTSUNNY   81  75  83 NE9       30.09R
TUNICA         SUNNY     82  73  74 N12G20    30.08S
$$

MSZ003>006-009-014>017-022>024-029>033-037>039-301500-
NORTHEAST MISSISSIPPI

CITY           SKY/WX    TMP DP  RH WIND       PRES   REMARKS
COLUMBUS AFB   SUNNY     83  76  79 N9        30.03S HX  91
CORINTH        FAIR      81  66  61 N12       30.08R
STARKVILLE     FAIR      81  75  83 N5        30.04S
TUPELO         MOSUNNY   82  75  79 NE15      30.06R
$$

MSZ040-058-301500-
CENTRAL MISSISSIPPI

CITY           SKY/WX    TMP DP  RH WIND       PRES   REMARKS
JACKSON INTL   MOSUNNY   89  74  60 NW7       30.03R HX  98
JACKSON HAWKNS MOSUNNY   86  75  69 NW9       30.04R HX  95
MERIDIAN KEY   SUNNY     85  74  69 N6        30.03R HX  92
MERIDIAN NAS   PTSUNNY   83  74  74 N6        30.03R
VICKSBURG      SUNNY     88  77  69 N3        30.04R HX 100
$$

MSZ059>079-301500-
SOUTH MISSISSIPPI

CITY           SKY/WX    TMP DP  RH WIND       PRES   REMARKS
BROOKHAVEN     FAIR      84  77  79 NW6       30.06R HX  94
HATTIESBURG    MOSUNNY   82  74  76 NW3       30.03R
MCCOMB         PTSUNNY   83  77  82 N6        30.04R HX  92
NATCHEZ        SUNNY     84  75  74 NW3       30.05S HX  92
PINE BELT      MOSUNNY   82 N/A N/A NW6       30.04R
$$

MSZ080>082-301500-
COASTAL MISSISSIPPI

CITY           SKY/WX    TMP DP  RH WIND       PRES   REMARKS
BAY ST LOUIS   PTSUNNY   79  72  78 NW7       30.02R
BILOXI         MOSUNNY   82  76  82 N6        30.01R
PASCAGOULA     MOSUNNY   84  76  76 N7        30.00S HX  93
GULFPORT       MOSUNNY   83  74  74 N7        30.01R
$$


USA.gov is the U.S. government's official web portal to all federal, state and local government web resources and services.